sat.trackr.live / text

‹ back to catalog

STARLINK-2537

NORAD 48301 · 2021-036AB

PAYLOAD ACTIVE UNKNOWN

§ Identity

Operator
Country
US
Launch date
2021-04-29
Launch site
AFETR
Launch vehicle
Mass (kg)
RCS (m²)

Purposes: comms

External: N2YO · Heavens-Above · Gunter

§ Orbital elements

Epoch: 2026-09-19T15:14:39.742080Z

Period
94.01 min
Inclination
53.1603°
Eccentricity
0.0001627
Mean motion
15.31696513 rev/d
Perigee alt
469.6 km
Apogee alt
471.9 km
Semi-major
6,848.9 km
B*
2.5504e-6
RAAN
268.5887°
Arg perigee
62.0346°
Mean anomaly
298.0820°
Rev number
29,789

§ Raw data

STARLINK-25371 48301U 21036AB  26262.63518220 -.00000286  00000+0  25504-5 0  99902 48301  53.1603 268.5887 0001627  62.0346 298.0820 15.31696513297891

JSON: /api/v1/satellites/48301 · /tle

For live sub-satellite position, see the globe view (requires WebGL).

§ Visibility from observer

Set your observer location to see the next 7 days of passes ≥ 10°. The values pass through the URL so the page stays shareable.

No JS? Fill the form by hand. The geolocation button needs JavaScript.